Weather in Duşak

Turkmenistan     37°11′28″N   60°00′48″E
temp.,
°C
wind,
m/s
gust,
m/s
humid.,
%
clouds,
%
prec.,
mm/h
press.,
hPa
HPBL,
m
12 august, fri
fri1223:00+28nne35210 0.0 101196
02:00+27wnw44230 0.0 101151
05:00+25wnw45260 0.0 101159
08:00+27nw46230 0.0 1012302
11:00+31nnw55170 0.0 10121977
14:00+34nnw55150 0.0 10092574
17:00+35nnw56140 0.0 10082748
20:00+32n44170 0.0 100853
13 august, sat
sat1323:00+30nnw34190 0.0 100958
02:00+28wnw45210 0.0 100963
05:00+27nw46230 0.0 100967
08:00+28nw45220 0.0 1010230
11:00+33nnw44160 0.0 10101249
14:00+36nnw56130 0.0 10082816
17:00+37n67110 0.0 10063060
20:00+33nne45140 0.0 100655
14 august, sun
sun1423:00+30wnw34180 0.0 100743
02:00+29w57180 0.0 100688
05:00+28wnw56200 0.0 100675
08:00+29nw58200 0.0 1007322
11:00+34nnw66150 0.0 10071163
14:00+37nnw55130 0.0 10062904
17:00+38nnw77120 0.0 10043366
20:00+34nw57130 0.0 100599
15 august, mon
mon1523:00+31wnw56160 0.0 100674
02:00+30wnw45180 0.0 100559
05:00+28nw45200 0.0 100658
08:00+30wnw45190 0.0 1007207
11:00+35nnw33140 0.0 10071252
14:00+38n55120 0.0 10063034
17:00+38nnw77110 0.0 10053247
20:00+35nw610130 0.0 1006185
16 august, tue
tue1623:00+31wnw46160 0.0 100772
02:00+30wnw56180 0.0 100772
05:00+28nw45190 0.0 100756
08:00+30wnw57180 0.0 1009273
11:00+36nw65140 0.0 10091125
14:00+38n77120 0.0 10073187
17:00+39n88110 0.0 10063453
20:00+35n611140 0.0 1007209